This is the latest recevied weather packets stored in our database for station/object KC5DAQ-2. If no packets are shown the sender has not sent any weather packets the latest 10 day(s).
| Time | Temp. | Humidity | Pressure | Rain* | Wind** | Luminosity | Snow |
|---|---|---|---|---|---|---|---|
| 1787950979 | 37.22° C | 73% | 1006.9 hPa | 0 mm | - | 77 W/m² | - |
| 1787950919 | 37.22° C | 73% | 1006.7 hPa | 0 mm | - | 77 W/m² | - |
| 1787950860 | 37.22° C | 73% | 1006.6 hPa | 0 mm | - | 77 W/m² | - |
| 1787950798 | 37.22° C | 73% | 1006.6 hPa | 0 mm | - | 77 W/m² | - |
| 1787950741 | 37.22° C | 72% | 1006.5 hPa | 0 mm | - | 93 W/m² | - |
| 1787950679 | 37.22° C | 72% | 1006.4 hPa | 0 mm | - | 102 W/m² | - |
| 1787950620 | 37.22° C | 72% | 1006.3 hPa | 0 mm | - | 102 W/m² | - |
| 1787950558 | 37.22° C | 71% | 1006.2 hPa | 0 mm | - | 111 W/m² | - |
| 1787950510 | 37.22° C | 71% | 1006.3 hPa | 0 mm | - | 111 W/m² | - |
| 1787950438 | 37.22° C | 71% | 1006.3 hPa | 0 mm | - | 120 W/m² | - |
| 1787950380 | 37.22° C | 71% | 1006.3 hPa | 0 mm | - | 222 W/m² | - |
| 1787950319 | 37.22° C | 71% | 1006.3 hPa | 0 mm | - | 222 W/m² | - |
| 1787950259 | 37.22° C | 71% | 1006.4 hPa | 0 mm | - | 222 W/m² | - |
| 1787950199 | 37.22° C | 71% | 1006.4 hPa | 0 mm | - | 222 W/m² | - |
| 1787950138 | 37.22° C | 71% | 1006.3 hPa | 0 mm | - | 222 W/m² | - |
| 1787950079 | 37.22° C | 71% | 1006.4 hPa | 0 mm | - | 222 W/m² | - |
| 1787950020 | 37.22° C | 71% | 1006.4 hPa | 0 mm | - | 222 W/m² | - |
| 1787949960 | 37.22° C | 72% | 1006.3 hPa | 0 mm | - | 222 W/m² | - |
| 1787949899 | 37.22° C | 72% | 1006.3 hPa | 0 mm | - | 222 W/m² | - |
| 1787949841 | 37.22° C | 73% | 1006.3 hPa | 0 mm | - | 455 W/m² | - |
| 1787949780 | 37.22° C | 73% | 1006.3 hPa | 0 mm | - | 455 W/m² | - |
| 1787949719 | 37.22° C | 73% | 1006.2 hPa | 0 mm | - | 455 W/m² | - |
| 1787949659 | 37.22° C | 74% | 1006.2 hPa | 0 mm | - | 455 W/m² | - |
| 1787949598 | 37.22° C | 74% | 1006.1 hPa | 0 mm | - | 547 W/m² | - |
| 1787949538 | 36.67° C | 75% | 1006.1 hPa | 0 mm | - | 547 W/m² | - |
* Rain latest hour (hover to see other rain measurements)
** Current wind speed in m/s (hover to see current wind gust speed)